Showing default

LOPEN, 60473

Orbit data source: Space-Track

LOPEN, 60473 is an American payload satellite in SSO that was launched on Fri, 16 Aug 2024 UTC via an FALCON 9 launch vehicle from the Air Force Western Test Range (AFWTR). Payload-class satellites include a variety of spacecraft equipped with specific instruments for various scientific and technological missions. These include communications satellites like Starlink; space stations such as the ISS; scientific satellites like the Hubble; Earth observation satellites from companies like Planet Labs, Umbra, and HawkEye 360; GPS; miniature CubeSats for education and research; and military/defense satellites.

Loading next visibility...
Identifier
60473, 2024-149F
Orbit
SSO
Country
Flag of USUS
Related business
Manufacturer
ARRAY
Mission
Operational Commercial Technology
Bus & Motor
CUBESAT 1.5U, Unknown motor
Mass
1.83 kg wet, 1.83 kg dry
Launch date (UTC)
2024-08-16 (1 year ago)
Launch vehicle
FALCON 9
Launch site
Air Force Western Test Range (AFWTR)
Object type
Payload
Rocket body
Debris
Shape & HBR
Box, 0.1 m
Radar Cross Section
0.015 m², Small (<0.1 m²)

Expand to show TLE details & history
Last TLE update: 4 hours ago

TLE from 4 hours ago
0 LOPEN
1 60473U 24149F   26035.17963402  .00018646  00000-0  54372-3 0  9997
2 60473  97.3884 117.8749 0001971  48.5109 311.6303 15.35407068 81828
Epoch: 2026-02-04T04:18Z
TLE epoch observation values (Epoch: 2026-02-04T04:18:40.379Z)
Latitude
-0.00006°
Longitude
-81.14326°
Altitude
461.928 km
Speed
7.636 km/s
True Right ascension
07h 51m 29s
True Declination
0° 00' 00"
Sunlit
Object was in full shadow at epoch
Visualization orbit readout
Latitude
Unknown
Longitude
Unknown
Altitude
Unknown
Speed
Unknown
Apparent Right ascension
Unknown
Apparent Declination
Unknown
Sunlit
N/A
Visualization observer readout
Local Sidereal Time
10:43:49
Azimuth
Unknown
Elevation
Unknown
Doppler factor
Unknown
Orbital elements
Apogee altitude
458.003 km
Perigee altitude
455.309 km
Semi-major axis
6,834.793 km
Eccentricity
0.0002
Inclination
97.3884°
RAAN
117.8749°
Arg. of periapsis
48.5109°
True anomaly
311.61342°
Mean anomaly
311.6303°
Eccentric anomaly
311.62186°
Mean motion
3.8411 °/min
Orbital period
93.72 mins
BSTAR
0.00054372
Loading maneuver chart data...
Computing Atmospheric mass density...
Loading historical data...
Loading historical data...
Loading historical data...
Loading historical data...
Loading historical data...
Loading historical data...
Loading historical data...

Documentation

Showing up to 5 results
|